Date,TemperatureHighF,TemperatureAvgF,TemperatureLowF,DewpointHighF,DewpointAvgF,DewpointLowF,HumidityHigh,HumidityAvg,HumidityLow,PressureMaxIn,PressureMinIn,WindSpeedMaxMPH,WindSpeedAvgMPH,GustSpeedMaxMPH,PrecipitationSumIn
2013-7-1,85.9,73.5,68.2,-25.7,-33.0,-36.1,1,1,1,29.63,29.44,14,3,14,0.20
2013-7-2,79.1,73.6,71.8,-29.7,-32.9,-34.0,1,1,1,29.77,29.63,16,4,17,0.88
2013-7-3,74.7,74.5,74.4,-32.2,-32.4,-32.4,1,1,1,29.76,29.76,7,3,7,0.00
2013-7-8,83.2,82.5,81.9,-27.2,-27.6,-28.0,1,1,1,29.77,29.76,4,2,4,0.00
2013-7-9,88.1,80.0,75.6,-24.3,-29.1,-31.7,1,1,1,29.82,29.72,10,3,11,0.01
2013-7-10,87.8,78.4,72.8,-24.7,-30.0,-33.4,1,1,1,29.77,29.61,16,4,16,0.00
2013-7-11,88.8,77.9,70.6,-23.9,-30.4,-34.7,1,1,1,29.63,29.51,12,4,12,0.41
2013-7-12,79.5,72.8,70.5,-29.4,-33.4,-34.8,1,1,1,29.57,29.48,11,3,11,0.19
2013-7-13,74.3,74.3,74.3,-32.5,-32.5,-32.5,1,1,1,29.66,29.66,2,2,2,0.00
2013-7-15,86.6,80.0,74.3,-25.2,-29.1,-32.5,1,1,1,29.90,29.84,14,5,17,0.04
2013-7-16,90.2,84.5,73.7,-9.5,-25.9,-32.8,2,1,1,29.92,29.85,8,3,8,0.00
2013-7-17,92.4,84.1,73.4,39.2,-25.7,-33.0,16,1,1,29.86,29.75,19,4,19,0.00
2013-7-18,89.8,83.1,70.9,-23.3,-27.2,-34.5,1,1,1,29.79,29.71,8,3,8,0.00
2013-7-19,87.5,78.4,71.4,-24.6,-30.0,-34.3,1,1,1,29.77,29.64,26,3,26,0.07
2013-7-20,86.8,77.5,72.5,-25.0,-30.5,-33.6,1,1,1,29.73,29.60,17,5,19,0.00
2013-7-21,85.8,77.7,73.6,-25.8,-30.4,-33.0,1,1,1,29.68,29.57,16,4,16,0.02
2013-7-22,86.5,77.9,73.1,-25.2,-30.3,-33.2,1,1,1,29.65,29.55,17,6,19,0.00
2013-7-23,89.7,81.1,74.2,60.5,-11.9,-32.5,39,8,1,29.54,29.44,14,7,14,0.00
2013-7-24,89.9,82.0,71.9,-23.2,-27.9,-33.9,1,1,1,29.47,29.39,14,3,14,0.01
2013-7-25,91.5,83.5,72.5,39.4,-19.9,-33.6,17,3,1,29.55,29.51,11,4,12,0.00
2013-7-26,90.2,83.9,73.7,29.0,-21.3,-32.8,12,2,1,29.72,29.63,12,4,12,0.00
2013-7-27,73.3,73.1,72.9,-33.1,-33.2,-33.3,1,1,1,29.63,29.62,6,4,6,0.00
2013-7-29,89.4,74.6,72.1,-23.5,-32.3,-33.8,1,1,1,29.78,29.69,26,3,28,0.04
2013-7-30,90.7,74.7,69.8,38.2,-30.7,-35.2,16,1,1,29.82,29.75,9,2,9,0.01
2013-7-31,82.2,77.1,71.3,-27.8,-30.8,-34.3,1,1,1,29.76,29.65,14,3,14,0.17